Regional Weather Roundup
Issued by NWS Burlington, VT

Home | Current Version | Previous Version | Text Only | Print | Product List | Glossary On
Versions: 1 2 3 4 5 6 7 8 9 10 11 12 13 14 15 16 17 18 19 20 21 22 23 24 25 26 27 28 29 30 31 32 33 34 35 36 37 38 39 40 41 42 43 44 45 46 47 48 49 50
000
ASUS41 KBTV 300830
RWRBTV
VERMONT REGIONAL WEATHER ROUNDUP
NATIONAL WEATHER SERVICE BURLINGTON VT
400 AM EDT FRI SEP 30 2016

NOTE: "FAIR" INDICATES FEW OR NO CLOUDS BELOW 12,000 FEET WITH NO
SIGNIFICANT WEATHER AND/OR OBSTRUCTIONS TO VISIBILITY.

* THESE REPORTS ARE NOT UNDER NWS QUALITY CONTROL AND/OR DO NOT
  REPORT WEATHER SUCH AS PRECIPITATION AND FOG.

VTZ001>019-300900-
_____VERMONT_____


CITY           SKY/WX    TMP DP  RH WIND       PRES   REMARKS
BURLINGTON     CLOUDY    55  41  59 SE7       30.46F
MONTPELIER     CLOUDY    44  41  89 CALM      30.53F
MORRISVILLE    CLOUDY    43  41  93 CALM      30.51S
ST. JOHNSBURY*   N/A     44  42  93 MISG      30.50S
LYNDONVILLE*   FAIR      41  40  95 CALM      30.52S
MIDDLEBURY*    FAIR      55  36  48 SE10G18   30.46S
RUTLAND*       CLOUDY    51  40  65 VRB5      30.48S
SPRINGFIELD    MOCLDY    42  40  92 CALM      30.52S
HIGHGATE*      FAIR      48  46  90 SE3       30.46F
NEWPORT*       FAIR      41  41  99 SW3       30.50F
BENNINGTON     CLOUDY    54  38  54 VRB6G16   30.43F
SUTTON*          N/A     41 N/A N/A MISG        N/A
MT. MANSFIELD*   N/A     45 N/A N/A SE13        N/A

_____LAKE CHAMPLAIN_____


CITY           SKY/WX    TMP DP  RH WIND       PRES   REMARKS
BURTON ISLAND*   N/A     57  48  72 E6          N/A
COLCHESTER RF*   N/A     59  52  77 NW3         N/A
DIAMOND ISL*     N/A     57  43  58 S10         N/A

$$

NYZ007-026>031-035-052-083-087-300900-
_____NORTHERN NEW YORK_____


CITY           SKY/WX    TMP DP  RH WIND       PRES   REMARKS
PLATTSBURGH    CLOUDY    51  47  86 NW3       30.46S
SARANAC LAKE   PTCLDY    48  45  89 CALM      30.42F
MASSENA        CLOUDY    53  45  74 NE5       30.45F
OGDENSBURG*    CLEAR     54  46  76 E7        30.43S
WATERTOWN      CLOUDY    51  47  86 NE6       30.39F
FT DRUM        CLOUDY    51  48  88 NE9       30.39F
ALBANY         CLOUDY    56  42  59 E3        30.43F
GLENS FALLS    CLOUDY    56  40  55 NE7       30.45S

$$
NHZ002-005-011-300900-
_____NEW HAMPSHIRE_____


CITY           SKY/WX    TMP DP  RH WIND       PRES   REMARKS
LEBANON        MOCLDY    43  42  97 CALM      30.51S FOG
KEENE          CLOUDY    45  44  97 N5        30.49F
MT WASHINGTON  MOCLDY    48 -13   7 E8          N/A
PLYMOUTH       FAIR      39  39  99 CALM      30.52S
WHITEFIELD     PTCLDY    47  36  65 E6        30.50F

$$

_____REGIONAL QUEBEC LOCATIONS_____


CITY           SKY/WX    TMP DP  RH WIND       PRES   REMARKS
MONTREAL       MOCLDY    50  43  76 N12       30.47F
QUEBEC CITY    PTCLDY    39  37  93 N5        30.56S
SHERBROOKE     CLEAR     37  37 100 NE6       30.50F

_____REGIONAL ONTARIO LOCATIONS_____


CITY           SKY/WX    TMP DP  RH WIND       PRES   REMARKS
OTTAWA         CLOUDY    52  43  71 NE9       30.45F

______KEY______
VSB  - VISIBILITY IN MILES
WCI  - WIND CHILL INDEX
HX   - HEAT INDEX
$$
NNNN




USA.gov is the U.S. government's official web portal to all federal, state and local government web resources and services.